Frenchville, ME

11:56 AM EDT on July 28, 2017 (GMT -0400)
Northern Aroostook Regional

Weather History for KFVE - October, 2010

Change the Weather History Date:

Saturday, October 16, 2010

  Actual Average Record
Temperature  
Mean Temperature 44 °F 42 °F  
Max Temperature 47 °F 49 °F 63 °F (2004)
Min Temperature 41 °F 34 °F 19 °F (2000)
Degree Days  
Heating Degree Days 21    
Month to date heating degree days 319  
Since 1 July heating degree days 743  
Cooling Degree Days 0    
Month to date cooling degree days 0  
Year to date cooling degree days 268  
Moisture  
Dew Point 42 °F    
Average Humidity 97    
Maximum Humidity 100    
Minimum Humidity 89    
Precipitation  
Precipitation 0.05 in 0.07 in 2.10 in (2005)
Month to date precipitation 2.42 1.37  
Year to date precipitation 29.01 26.95  
Sea Level Pressure  
Sea Level Pressure 29.51 in    
Wind  
Wind Speed 12 mph (North)    
Max Wind Speed 22 mph    
Max Gust Speed 29 mph    
Visibility 7 miles    
Events Rain    
T = Trace of Precipitation, MM = Missing Value Source: NWS Daily Summary

Daily Weather History Graph

Daily Weather History Graph

Search for Another Location

Airport or City:

Trip Planner

Search our weather history database for the weather conditions in past years. The results will help you decide how hot, cold, wet, or windy it might be!

Date:

Astronomy

Oct. 16, 2010 Rise Set
Actual Time 6:52 AM EDT 5:43 PM EDT
Civil Twilight 6:22 AM EDT 6:14 PM EDT
Nautical Twilight 5:46 AM EDT 6:50 PM EDT
Astronomical Twilight 5:11 AM EDT 7:25 PM EDT
Moon 2:57 PM EDT (10/16) 12:16 AM EDT (10/16)
Length of Visible Light 11h 52m
Length of Day
10h 50m
Waxing Gibbous, 67% of the Moon is Illuminated
Oct 16
Waxing Gibbous
Oct 22
Full
Oct 30
Last Quarter
Nov 6
New
Nov 13
First Quarter

Hourly Weather History & Observations

Time (EDT) Temp. Windchill Dew Point Humidity Pressure Visibility Wind Dir Wind Speed Gust Speed Precip Events Conditions
12:53 AM 43.0 °F 34.5 °F 41.0 °F 93% 29.41 in 3.0 mi NE 19.6 mph 24.2 mph 0.00 in Rain Light Rain
1:08 AM 42.8 °F 36.2 °F 41.0 °F 93% 29.39 in 7.0 mi NNE 12.7 mph 25.3 mph 0.00 in   Overcast
1:53 AM 43.0 °F 36.0 °F 42.1 °F 97% 29.40 in 6.0 mi NE 13.8 mph 24.2 mph 0.00 in   Overcast
2:53 AM 43.0 °F 36.0 °F 42.1 °F 97% 29.40 in 5.0 mi NE 13.8 mph 24.2 mph 0.01 in Rain Light Rain
3:08 AM 42.8 °F 36.6 °F 42.8 °F 100% 29.39 in 7.0 mi NE 11.5 mph - 0.00 in Rain Light Rain
3:53 AM 43.0 °F 38.2 °F 42.1 °F 97% 29.42 in 10.0 mi NE 8.1 mph - 0.00 in   Overcast
4:53 AM 43.0 °F 38.2 °F 42.1 °F 97% 29.43 in 10.0 mi North 8.1 mph - N/A   Overcast
5:16 AM 42.8 °F 37.5 °F 42.8 °F 100% 29.42 in 2.5 mi North 9.2 mph - N/A   Overcast
5:30 AM 42.8 °F 37.5 °F 42.8 °F 100% 29.42 in 4.0 mi North 9.2 mph - N/A   Overcast
5:50 AM 42.8 °F 37.5 °F 42.8 °F 100% 29.43 in 2.0 mi North 9.2 mph - 0.00 in Rain Light Rain
5:53 AM 42.1 °F 36.6 °F 42.1 °F 100% 29.45 in 2.5 mi North 9.2 mph - 0.00 in Rain Light Rain
6:04 AM 42.8 °F 37.0 °F 42.8 °F 100% 29.44 in 4.0 mi NNE 10.4 mph - N/A   Overcast
6:53 AM 42.1 °F 36.6 °F 42.1 °F 100% 29.46 in 10.0 mi North 9.2 mph - 0.01 in   Overcast
7:38 AM 42.8 °F 37.5 °F 42.8 °F 100% 29.46 in 10.0 mi North 9.2 mph - N/A   Overcast
7:53 AM 42.1 °F 36.1 °F 42.1 °F 100% 29.48 in 10.0 mi North 10.4 mph - N/A   Overcast
8:28 AM 42.8 °F 37.0 °F 42.8 °F 100% 29.48 in 10.0 mi North 10.4 mph - N/A   Overcast
8:37 AM 42.8 °F 38.0 °F 42.8 °F 100% 29.48 in 10.0 mi North 8.1 mph - N/A   Overcast
8:53 AM 43.0 °F 37.7 °F 42.1 °F 97% 29.50 in 10.0 mi North 9.2 mph - N/A   Overcast
9:46 AM 42.8 °F 37.5 °F 42.8 °F 100% 29.50 in 7.0 mi North 9.2 mph - 0.00 in   Overcast
9:53 AM 42.8 °F 38.6 °F 42.8 °F 100% 29.51 in 6.0 mi North 6.9 mph - N/A   Overcast
10:08 AM 42.8 °F 37.0 °F 42.8 °F 100% 29.50 in 2.0 mi North 10.4 mph - 0.02 in Rain Rain
10:21 AM 44.6 °F 39.2 °F 42.8 °F 93% 29.51 in 6.0 mi North 10.4 mph - 0.03 in Rain Light Rain
10:28 AM 44.6 °F 40.2 °F 44.6 °F 100% 29.51 in 8.0 mi North 8.1 mph - 0.03 in Rain Light Rain
10:42 AM 44.6 °F 40.2 °F 44.6 °F 100% 29.51 in 6.0 mi North 8.1 mph - 0.03 in   Overcast
10:53 AM 45.0 °F 40.1 °F 44.1 °F 97% 29.52 in 6.0 mi NNW 9.2 mph - 0.03 in   Overcast
11:04 AM 44.6 °F 39.2 °F 44.6 °F 100% 29.51 in 8.0 mi NNW 10.4 mph - N/A   Overcast
11:38 AM 46.4 °F 41.1 °F 44.6 °F 93% 29.52 in 10.0 mi NNW 11.5 mph - N/A   Overcast
11:53 AM 46.0 °F 40.6 °F 44.1 °F 93% 29.53 in 10.0 mi NNW 11.5 mph - N/A   Overcast
12:53 PM 46.0 °F 41.0 °F 44.1 °F 93% 29.53 in 10.0 mi North 10.4 mph 20.7 mph N/A   Overcast
1:53 PM 46.0 °F 41.0 °F 45.0 °F 96% 29.54 in 3.0 mi North 10.4 mph 18.4 mph N/A   Overcast
2:53 PM 46.0 °F 39.6 °F 44.1 °F 93% 29.55 in 7.0 mi NW 15.0 mph - 0.00 in   Overcast
3:25 PM 44.6 °F 38.1 °F 44.6 °F 100% 29.55 in 6.0 mi NNW 13.8 mph 24.2 mph N/A   Overcast
3:53 PM 45.0 °F 38.9 °F 44.1 °F 97% 29.56 in 6.0 mi NNW 12.7 mph 20.7 mph N/A   Overcast
4:53 PM 44.1 °F 37.7 °F 43.0 °F 96% 29.58 in 10.0 mi NNW 12.7 mph - N/A   Overcast
5:25 PM 42.8 °F 35.4 °F 42.8 °F 100% 29.58 in 2.0 mi NNW 15.0 mph 24.2 mph N/A   Overcast
5:29 PM 42.8 °F 34.8 °F 42.8 °F 100% 29.58 in 1.5 mi NW 17.3 mph 23.0 mph N/A   Overcast
5:49 PM 42.8 °F 35.4 °F 42.8 °F 100% 29.59 in 1.8 mi NNW 15.0 mph 21.9 mph N/A   Overcast
5:53 PM 42.1 °F 33.9 °F 42.1 °F 100% 29.61 in 2.5 mi NNW 17.3 mph 25.3 mph N/A   Overcast
6:02 PM 42.8 °F 34.3 °F 41.0 °F 93% 29.59 in 5.0 mi NNW 19.6 mph 28.8 mph N/A   Overcast
6:53 PM 41.0 °F 33.5 °F 39.9 °F 96% 29.62 in 9.0 mi NNW 13.8 mph 24.2 mph N/A   Overcast
7:53 PM 41.0 °F 33.1 °F 39.0 °F 93% 29.63 in 10.0 mi NNW 15.0 mph 21.9 mph N/A   Overcast
8:21 PM 41.0 °F 32.8 °F 39.2 °F 93% 29.61 in 10.0 mi NNW 16.1 mph 24.2 mph N/A   Overcast
8:53 PM 41.0 °F 33.5 °F 39.0 °F 93% 29.62 in 10.0 mi NNW 13.8 mph 23.0 mph N/A   Overcast
9:53 PM 41.0 °F 32.8 °F 37.9 °F 89% 29.62 in 10.0 mi NNW 16.1 mph 25.3 mph N/A   Overcast
10:53 PM 41.0 °F 33.9 °F 37.9 °F 89% 29.62 in 10.0 mi North 12.7 mph 21.9 mph N/A   Overcast
11:53 PM 41.0 °F 33.1 °F 37.9 °F 89% 29.62 in 10.0 mi NNW 15.0 mph 24.2 mph N/A   Overcast